Weather History for Honolulu, HI

Change the Weather History Date:

Wednesday, June 12, 2013

  Actual Average Record
Temperature  
Mean Temperature 80 °F 80 °F  
Max Temperature 86 °F 87 °F 89 °F (1982)
Min Temperature 74 °F 73 °F 67 °F (1969)
Degree Days  
Heating Degree Days 0 0  
Month to date heating degree days 0 0  
Since 1 June heating degree days 0 0  
Since 1 July heating degree days 0 0  
Cooling Degree Days 15 15  
Month to date cooling degree days 174 177  
Year to date cooling degree days 1634 1679  
Since 1 June cooling degree days 174 177  
Growing Degree Days 28 (Base 50)    
Moisture  
Dew Point 65 °F    
Average Humidity 68    
Maximum Humidity 84    
Minimum Humidity 51    
Precipitation  
Precipitation T in 0.01 in 0.44 in (2008)
Month to date precipitation 0.01 0.12  
Year to date precipitation 8.47 7.69  
Snow  
Snow 0.00 in - - ()
Month to date snowfall 0.0  
Since 1 June snowfall 0.0  
Since 1 July snowfall 0.0  
Snow Depth 0.00 in    
Sea Level Pressure  
Sea Level Pressure 30.05 in    
Wind  
Wind Speed 13 mph (ENE)    
Max Wind Speed 23 mph    
Max Gust Speed 31 mph    
Visibility 10 miles    
Events      
T = Trace of Precipitation, MM = Missing Value Source: NWS Daily Summary

Daily Weather History Graph

Daily Weather History Graph

Search for Another Location

Airport:

Trip Planner

Search our weather history database for the weather conditions in past years. The results will help you decide how hot, cold, wet, or windy it might be!

Date:

Astronomy

Jun. 12, 2013 Rise Set
Actual Time 5:49 AM HST 7:14 PM HST
Civil Twilight 5:24 AM HST 7:39 PM HST
Nautical Twilight 4:54 AM HST 8:08 PM HST
Astronomical Twilight 4:24 AM HST 8:39 PM HST
Moon 9:18 AM HST (6/12) 10:21 PM HST (6/12)
Length of Visible Light 14h 14m
Length of Day
13h 25m
Waxing Crescent, 16% of the Moon is Illuminated
Jun 12
Waxing Crescent
Jun 16
First Quarter
Jun 23
Full
Jun 29
Last Quarter
Jul 7
New

Hourly Weather History & Observations

Time (HST) Temp. Heat Index Dew Point Humidity Pressure Visibility Wind Dir Wind Speed Gust Speed Precip Events Conditions
12:03 AM 73.4 °F - 69.8 °F 88% 30.05 in 10.0 mi ENE 4.6 mph - 0.00 in   Mostly Cloudy
12:53 AM 75.0 °F - 66.9 °F 76% 30.03 in 10.0 mi ENE 6.9 mph - 0.00 in   Mostly Cloudy
1:53 AM 75.0 °F - 66.0 °F 73% 30.03 in 10.0 mi ENE 8.1 mph 18.4 mph 0.00 in   Mostly Cloudy
2:53 AM 73.9 °F - 64.9 °F 73% 30.02 in 10.0 mi ENE 10.4 mph - N/A   Scattered Clouds
3:53 AM 73.9 °F - 64.0 °F 71% 30.02 in 10.0 mi ENE 10.4 mph - N/A   Partly Cloudy
4:53 AM 73.9 °F - 64.9 °F 73% 30.03 in 10.0 mi ENE 9.2 mph - N/A   Partly Cloudy
5:53 AM 73.9 °F - 63.0 °F 68% 30.04 in 10.0 mi NE 9.2 mph - N/A   Scattered Clouds
6:53 AM 75.0 °F - 64.0 °F 69% 30.05 in 10.0 mi ENE 13.8 mph - N/A   Scattered Clouds
7:53 AM 77.0 °F - 64.0 °F 64% 30.06 in 10.0 mi NE 12.7 mph 20.7 mph N/A   Scattered Clouds
8:53 AM 80.1 °F 81.9 °F 64.9 °F 60% 30.07 in 10.0 mi ENE 15.0 mph 20.7 mph N/A   Scattered Clouds
9:53 AM 82.0 °F 83.8 °F 64.9 °F 56% 30.07 in 10.0 mi ENE 17.3 mph 26.5 mph N/A   Scattered Clouds
10:53 AM 82.9 °F 83.7 °F 62.1 °F 49% 30.07 in 10.0 mi NE 19.6 mph 27.6 mph N/A   Scattered Clouds
11:53 AM 84.9 °F 86.1 °F 64.0 °F 49% 30.07 in 10.0 mi East 18.4 mph 29.9 mph N/A   Scattered Clouds
12:53 PM 84.9 °F 87.1 °F 66.0 °F 53% 30.06 in 10.0 mi ENE 21.9 mph 29.9 mph N/A   Scattered Clouds
1:53 PM 81.0 °F 83.3 °F 66.9 °F 62% 30.05 in 10.0 mi ENE 12.7 mph 21.9 mph N/A   Scattered Clouds
2:53 PM 82.0 °F 84.1 °F 66.0 °F 58% 30.04 in 10.0 mi NE 18.4 mph 26.5 mph 0.00 in   Mostly Cloudy
3:53 PM 75.9 °F - 69.1 °F 79% 30.04 in 10.0 mi NE 13.8 mph - 0.00 in   Mostly Cloudy
4:53 PM 80.1 °F 81.9 °F 64.9 °F 60% 30.02 in 10.0 mi ENE 23.0 mph 28.8 mph N/A   Mostly Cloudy
5:53 PM 79.0 °F - 66.0 °F 64% 30.03 in 10.0 mi ENE 15.0 mph 26.5 mph N/A   Mostly Cloudy
6:53 PM 77.0 °F - 64.9 °F 66% 30.04 in 10.0 mi ENE 13.8 mph 24.2 mph N/A   Scattered Clouds
7:53 PM 77.0 °F - 64.9 °F 66% 30.06 in 10.0 mi ENE 15.0 mph 20.7 mph N/A   Scattered Clouds
8:53 PM 75.9 °F - 64.9 °F 69% 30.08 in 10.0 mi ENE 15.0 mph 25.3 mph N/A   Partly Cloudy
9:53 PM 75.0 °F - 66.0 °F 73% 30.10 in 10.0 mi ENE 12.7 mph 23.0 mph N/A   Scattered Clouds
10:53 PM 75.0 °F - 66.0 °F 73% 30.10 in 10.0 mi ENE 15.0 mph 20.7 mph N/A   Partly Cloudy
11:53 PM 75.0 °F - 64.9 °F 71% 30.09 in 10.0 mi ENE 18.4 mph 24.2 mph N/A   Partly Cloudy